START_TIME,STEP,MOV.,M35,t_acc.,PL05,t_acc.,PL06,t_acc.,PL07,t_acc.
1979-07-17 18:00:23.880 ,0,1,0.,4.8,70.,4.8,11.,4.8,4.,4.8
1979-07-17 18:00:28.680 ,0,1,0.,4.8,66.,4.8,14.,4.8,10.,4.8
1979-07-17 18:00:33.480 ,0,1,0.,4.8,45.,4.8,17.,4.8,5.,4.8
1979-07-17 18:00:38.280 ,0,1,1.,4.8,31.,4.8,7.,4.8,4.,4.8
1979-07-17 18:00:43.080 ,0,1,0.,4.8,31.,4.8,8.,4.8,5.,4.8
1979-07-17 18:00:47.880 ,4,1,0.,4.8,24.,4.8,13.,4.8,2.,4.8
1979-07-17 18:00:52.680 ,4,1,0.,4.8,52.,4.8,16.,4.8,8.,4.8
1979-07-17 18:00:57.480 ,4,1,0.,4.8,48.,4.8,13.,4.8,8.,4.8
1979-07-17 18:01:02.280 ,4,1,2.,4.8,68.,4.8,12.,4.8,8.,4.8
1979-07-17 18:01:07.080 ,4,1,0.,4.8,45.,4.8,10.,4.8,6.,4.8
1979-07-17 18:01:11.880 ,7,1,0.,4.8,51.,4.8,11.,4.8,6.,4.8
1979-07-17 18:01:16.680 ,7,1,0.,4.8,38.,4.8,9.,4.8,3.,4.8
1979-07-17 18:01:21.480 ,7,1,0.,4.8,32.,4.8,7.,4.8,3.,4.8
1979-07-17 18:01:26.280 ,7,1,0.,4.8,8.,4.8,4.,4.8,2.,4.8
1979-07-17 18:01:31.080 ,7,1,0.,4.8,2.,4.8,0.,4.8,0.,4.8
1979-07-17 18:01:35.880 ,3,1,0.,4.8,5.,4.8,4.,4.8,0.,4.8
1979-07-17 18:01:40.680 ,3,1,0.,4.8,35.,4.8,3.,4.8,7.,4.8
1979-07-17 18:01:45.480 ,3,1,0.,4.8,42.,4.8,11.,4.8,4.,4.8
1979-07-17 18:01:50.280 ,3,1,1.,4.8,47.,4.8,9.,4.8,6.,4.8
1979-07-17 18:01:55.080 ,3,1,0.,4.8,56.,4.8,13.,4.8,6.,4.8
1979-07-17 18:01:59.880 ,0,1,0.,4.8,59.,4.8,17.,4.8,7.,4.8
1979-07-17 18:02:04.680 ,0,1,0.,4.8,61.,4.8,14.,4.8,3.,4.8
1979-07-17 18:02:09.480 ,0,1,0.,4.8,44.,4.8,14.,4.8,5.,4.8
1979-07-17 18:02:14.280 ,0,1,0.,4.8,40.,4.8,10.,4.8,5.,4.8
1979-07-17 18:02:19.080 ,0,1,0.,4.8,35.,4.8,7.,4.8,5.,4.8
1979-07-17 18:02:23.880 ,4,1,0.,4.8,27.,4.8,6.,4.8,8.,4.8
1979-07-17 18:02:28.680 ,4,1,0.,4.8,43.,4.8,10.,4.8,8.,4.8
1979-07-17 18:02:33.480 ,4,1,0.,4.8,63.,4.8,15.,4.8,5.,4.8
1979-07-17 18:02:38.280 ,4,1,0.,4.8,53.,4.8,19.,4.8,5.,4.8
1979-07-17 18:02:43.080 ,4,1,0.,4.8,45.,4.8,14.,4.8,7.,4.8
1979-07-17 18:02:47.880 ,7,1,0.,4.8,37.,4.8,12.,4.8,5.,4.8
1979-07-17 18:02:52.680 ,7,1,0.,4.8,33.,4.8,15.,4.8,7.,4.8
1979-07-17 18:02:57.480 ,7,1,0.,4.8,34.,4.8,11.,4.8,6.,4.8
1979-07-17 18:03:02.280 ,7,1,1.,4.8,5.,4.8,2.,4.8,3.,4.8
1979-07-17 18:03:07.080 ,7,1,0.,4.8,1.,4.8,0.,4.8,0.,4.8
1979-07-17 18:03:11.880 ,3,1,0.,4.8,12.,4.8,0.,4.8,0.,4.8
1979-07-17 18:03:16.680 ,3,1,0.,4.8,32.,4.8,15.,4.8,2.,4.8
1979-07-17 18:03:21.480 ,3,1,0.,4.8,39.,4.8,12.,4.8,5.,4.8
1979-07-17 18:03:26.280 ,3,1,0.,4.8,52.,4.8,11.,4.8,8.,4.8
1979-07-17 18:03:31.080 ,3,1,0.,4.8,47.,4.8,14.,4.8,1.,4.8
1979-07-17 18:03:35.880 ,0,1,0.,4.8,63.,4.8,15.,4.8,7.,4.8
1979-07-17 18:03:40.680 ,0,1,0.,4.8,84.,4.8,15.,4.8,8.,4.8
1979-07-17 18:03:45.480 ,0,1,0.,4.8,61.,4.8,10.,4.8,6.,4.8
1979-07-17 18:03:50.280 ,0,1,0.,4.8,40.,4.8,10.,4.8,4.,4.8
1979-07-17 18:03:55.080 ,0,1,0.,4.8,23.,4.8,8.,4.8,5.,4.8
1979-07-17 18:03:59.880 ,4,1,0.,4.8,37.,4.8,10.,4.8,2.,4.8
1979-07-17 18:04:04.680 ,4,1,0.,4.8,48.,4.8,9.,4.8,6.,4.8
1979-07-17 18:04:09.480 ,4,1,0.,4.8,45.,4.8,24.,4.8,5.,4.8
1979-07-17 18:04:14.280 ,4,1,0.,4.8,58.,4.8,9.,4.8,6.,4.8
1979-07-17 18:04:19.080 ,4,1,0.,4.8,70.,4.8,6.,4.8,7.,4.8
1979-07-17 18:04:23.880 ,7,1,,0,,0,,0,,0
1979-07-17 18:04:28.680 ,7,1,0.,4.8,36.,4.8,3.,4.8,5.,4.8
1979-07-17 18:04:33.480 ,7,1,0.,4.8,32.,4.8,13.,4.8,5.,4.8
1979-07-17 18:04:38.280 ,7,1,0.,4.8,6.,4.8,3.,4.8,4.,4.8
1979-07-17 18:04:43.080 ,7,1,0.,4.8,1.,4.8,0.,4.8,0.,4.8
1979-07-17 18:04:47.880 ,0,0,0.,4.8,7.,4.8,3.,4.8,1.,4.8
1979-07-17 18:04:52.680 ,0,0,0.,4.8,30.,4.8,8.,4.8,4.,4.8
1979-07-17 18:04:57.480 ,0,0,0.,4.8,34.,4.8,8.,4.8,3.,4.8
1979-07-17 18:05:02.280 ,0,0,0.,4.8,61.,4.8,9.,4.8,8.,4.8
1979-07-17 18:05:07.080 ,0,0,0.,4.8,53.,4.8,9.,4.8,10.,4.8
1979-07-17 18:05:11.880 ,0,0,0.,4.8,48.,4.8,9.,4.8,3.,4.8
1979-07-17 18:05:16.680 ,0,0,0.,4.8,64.,4.8,17.,4.8,3.,4.8
1979-07-17 18:05:21.480 ,0,0,0.,4.8,74.,4.8,7.,4.8,6.,4.8
1979-07-17 18:05:26.280 ,0,0,0.,4.8,37.,4.8,8.,4.8,4.,4.8
1979-07-17 18:05:31.080 ,0,0,0.,4.8,24.,4.8,5.,4.8,2.,4.8
1979-07-17 18:05:35.880 ,0,0,0.,4.8,29.,4.8,7.,4.8,5.,4.8
1979-07-17 18:05:40.680 ,0,0,0.,4.8,51.,4.8,7.,4.8,4.,4.8
1979-07-17 18:05:45.480 ,0,0,0.,4.8,57.,4.8,12.,4.8,8.,4.8
1979-07-17 18:05:50.280 ,0,0,0.,4.8,62.,4.8,10.,4.8,4.,4.8
1979-07-17 18:05:55.080 ,0,0,0.,4.8,39.,4.8,15.,4.8,4.,4.8
1979-07-17 18:05:59.880 ,0,0,0.,4.8,53.,4.8,17.,4.8,6.,4.8
1979-07-17 18:06:04.680 ,0,0,0.,4.8,43.,4.8,12.,4.8,10.,4.8
1979-07-17 18:06:09.480 ,0,0,0.,4.8,31.,4.8,7.,4.8,4.,4.8
1979-07-17 18:06:14.280 ,0,0,0.,4.8,4.,4.8,5.,4.8,1.,4.8
1979-07-17 18:06:19.080 ,0,0,0.,4.8,1.,4.8,0.,4.8,1.,4.8
1979-07-17 18:06:23.880 ,5,0,0.,4.8,7.,4.8,0.,4.8,0.,4.8
1979-07-17 18:06:28.680 ,5,0,0.,4.8,27.,4.8,7.,4.8,0.,4.8
1979-07-17 18:06:33.480 ,5,0,0.,4.8,49.,4.8,14.,4.8,5.,4.8
1979-07-17 18:06:38.280 ,5,0,0.,4.8,35.,4.8,8.,4.8,7.,4.8
1979-07-17 18:06:43.080 ,5,0,0.,4.8,44.,4.8,11.,4.8,5.,4.8
1979-07-17 18:06:47.880 ,5,0,0.,4.8,51.,4.8,9.,4.8,4.,4.8
1979-07-17 18:06:52.680 ,5,0,0.,4.8,51.,4.8,11.,4.8,7.,4.8
1979-07-17 18:06:57.480 ,5,0,1.,4.8,54.,4.8,8.,4.8,5.,4.8
1979-07-17 18:07:02.280 ,5,0,0.,4.8,40.,4.8,5.,4.8,4.,4.8
1979-07-17 18:07:07.080 ,5,0,0.,4.8,33.,4.8,20.,4.8,5.,4.8
1979-07-17 18:07:11.880 ,4,0,0.,4.8,44.,4.8,7.,4.8,6.,4.8
1979-07-17 18:07:16.680 ,4,0,0.,4.8,42.,4.8,9.,4.8,4.,4.8
1979-07-17 18:07:21.480 ,4,0,0.,4.8,53.,4.8,15.,4.8,5.,4.8
1979-07-17 18:07:26.280 ,4,0,0.,4.8,49.,4.8,11.,4.8,7.,4.8
1979-07-17 18:07:31.080 ,4,0,0.,4.8,46.,4.8,13.,4.8,3.,4.8
1979-07-17 18:07:35.880 ,4,0,0.,4.8,39.,4.8,16.,4.8,4.,4.8
1979-07-17 18:07:40.680 ,4,0,0.,4.8,54.,4.8,13.,4.8,2.,4.8
1979-07-17 18:07:45.480 ,4,0,0.,4.8,51.,4.8,12.,4.8,7.,4.8
1979-07-17 18:07:50.280 ,4,0,1.,4.8,56.,4.8,11.,4.8,4.,4.8
1979-07-17 18:07:55.080 ,4,0,0.,4.8,54.,4.8,15.,4.8,5.,4.8
1979-07-17 18:07:59.880 ,3,0,0.,4.8,53.,4.8,13.,4.8,3.,4.8
1979-07-17 18:08:04.680 ,3,0,1.,4.8,43.,4.8,14.,4.8,8.,4.8
1979-07-17 18:08:09.480 ,3,0,0.,4.8,42.,4.8,7.,4.8,4.,4.8
1979-07-17 18:08:14.280 ,3,0,0.,4.8,62.,4.8,11.,4.8,5.,4.8
1979-07-17 18:08:19.080 ,3,0,0.,4.8,55.,4.8,14.,4.8,6.,4.8
1979-07-17 18:08:23.880 ,3,0,0.,4.8,47.,4.8,5.,4.8,4.,4.8
1979-07-17 18:08:28.680 ,3,0,0.,4.8,57.,4.8,16.,4.8,9.,4.8
1979-07-17 18:08:33.480 ,3,0,0.,4.8,61.,4.8,9.,4.8,7.,4.8
1979-07-17 18:08:38.280 ,3,0,0.,4.8,52.,4.8,13.,4.8,3.,4.8
1979-07-17 18:08:43.080 ,3,0,0.,4.8,61.,4.8,11.,4.8,6.,4.8
1979-07-17 18:08:47.880 ,2,0,0.,4.8,55.,4.8,10.,4.8,6.,4.8
1979-07-17 18:08:52.680 ,2,0,0.,4.8,56.,4.8,10.,4.8,7.,4.8
1979-07-17 18:08:57.480 ,2,0,0.,4.8,64.,4.8,21.,4.8,9.,4.8
1979-07-17 18:09:02.280 ,2,0,0.,4.8,64.,4.8,16.,4.8,7.,4.8
1979-07-17 18:09:07.080 ,2,0,0.,4.8,86.,4.8,9.,4.8,5.,4.8
1979-07-17 18:09:11.880 ,2,0,0.,4.8,60.,4.8,19.,4.8,4.,4.8
1979-07-17 18:09:16.680 ,2,0,0.,4.8,62.,4.8,11.,4.8,2.,4.8
1979-07-17 18:09:21.480 ,2,0,0.,4.8,61.,4.8,13.,4.8,6.,4.8
1979-07-17 18:09:26.280 ,2,0,1.,4.8,64.,4.8,11.,4.8,6.,4.8
1979-07-17 18:09:31.080 ,2,0,0.,4.8,61.,4.8,8.,4.8,4.,4.8
1979-07-17 18:09:35.880 ,1,0,0.,4.8,63.,4.8,13.,4.8,6.,4.8
1979-07-17 18:09:40.680 ,1,0,0.,4.8,59.,4.8,14.,4.8,3.,4.8
1979-07-17 18:09:45.480 ,1,0,0.,4.8,64.,4.8,11.,4.8,7.,4.8
1979-07-17 18:09:50.280 ,1,0,0.,4.8,47.,4.8,17.,4.8,1.,4.8
1979-07-17 18:09:55.080 ,1,0,0.,4.8,68.,4.8,14.,4.8,6.,4.8
1979-07-17 18:09:59.880 ,1,0,0.,4.8,55.,4.8,13.,4.8,8.,4.8
1979-07-17 18:10:04.680 ,1,0,0.,4.8,63.,4.8,14.,4.8,5.,4.8
1979-07-17 18:10:09.480 ,1,0,0.,4.8,52.,4.8,13.,4.8,7.,4.8
1979-07-17 18:10:14.280 ,1,0,0.,4.8,44.,4.8,14.,4.8,2.,4.8
1979-07-17 18:10:19.080 ,1,0,0.,4.8,46.,4.8,11.,4.8,7.,4.8
1979-07-17 18:10:23.880 ,0,0,1.,4.8,42.,4.8,14.,4.8,7.,4.8
1979-07-17 18:10:28.680 ,0,0,0.,4.8,48.,4.8,12.,4.8,5.,4.8
1979-07-17 18:10:33.480 ,0,0,0.,4.8,38.,4.8,10.,4.8,7.,4.8
1979-07-17 18:10:38.280 ,0,0,0.,4.8,51.,4.8,10.,4.8,7.,4.8
1979-07-17 18:10:43.080 ,0,0,0.,4.8,44.,4.8,5.,4.8,3.,4.8
1979-07-17 18:10:47.880 ,0,0,0.,4.8,39.,4.8,5.,4.8,2.,4.8
1979-07-17 18:10:52.680 ,0,0,0.,4.8,41.,4.8,8.,4.8,5.,4.8
1979-07-17 18:10:57.480 ,0,0,0.,4.8,46.,4.8,10.,4.8,3.,4.8
1979-07-17 18:11:02.280 ,0,0,1.,4.8,30.,4.8,6.,4.8,8.,4.8
1979-07-17 18:11:07.080 ,0,0,0.,4.8,33.,4.8,14.,4.8,4.,4.8
1979-07-17 18:11:11.880 ,0,0,0.,4.8,36.,4.8,10.,4.8,3.,4.8
1979-07-17 18:11:16.680 ,0,0,0.,4.8,40.,4.8,7.,4.8,6.,4.8
1979-07-17 18:11:21.480 ,0,0,0.,4.8,34.,4.8,10.,4.8,8.,4.8
1979-07-17 18:11:26.280 ,0,0,0.,4.8,39.,4.8,7.,4.8,6.,4.8
1979-07-17 18:11:31.080 ,0,0,0.,4.8,44.,4.8,6.,4.8,5.,4.8
1979-07-17 18:11:35.880 ,0,0,0.,4.8,37.,4.8,8.,4.8,4.,4.8
1979-07-17 18:11:40.680 ,0,0,0.,4.8,47.,4.8,10.,4.8,4.,4.8
1979-07-17 18:11:45.480 ,0,0,0.,4.8,34.,4.8,6.,4.8,6.,4.8
1979-07-17 18:11:50.280 ,0,0,0.,4.8,47.,4.8,7.,4.8,5.,4.8
1979-07-17 18:11:55.080 ,0,0,0.,4.8,43.,4.8,5.,4.8,4.,4.8
1979-07-17 18:11:59.880 ,1,0,0.,4.8,45.,4.8,6.,4.8,7.,4.8
1979-07-17 18:12:04.680 ,1,0,0.,4.8,32.,4.8,8.,4.8,4.,4.8
1979-07-17 18:12:09.480 ,1,0,0.,4.8,64.,4.8,15.,4.8,4.,4.8
1979-07-17 18:12:14.280 ,1,0,0.,4.8,44.,4.8,9.,4.8,5.,4.8
1979-07-17 18:12:19.080 ,1,0,0.,4.8,50.,4.8,6.,4.8,1.,4.8
1979-07-17 18:12:23.880 ,1,0,0.,4.8,38.,4.8,15.,4.8,7.,4.8
1979-07-17 18:12:28.680 ,1,0,0.,4.8,50.,4.8,5.,4.8,5.,4.8
1979-07-17 18:12:33.480 ,1,0,0.,4.8,58.,4.8,8.,4.8,4.,4.8
1979-07-17 18:12:38.280 ,1,0,0.,4.8,53.,4.8,10.,4.8,6.,4.8
1979-07-17 18:12:43.080 ,1,0,0.,4.8,50.,4.8,16.,4.8,6.,4.8
1979-07-17 18:12:47.880 ,2,0,0.,4.8,56.,4.8,8.,4.8,7.,4.8
1979-07-17 18:12:52.680 ,2,0,0.,4.8,55.,4.8,7.,4.8,3.,4.8
1979-07-17 18:12:57.480 ,2,0,0.,4.8,59.,4.8,6.,4.8,5.,4.8
1979-07-17 18:13:02.280 ,2,0,0.,4.8,51.,4.8,16.,4.8,7.,4.8
1979-07-17 18:13:07.080 ,2,0,0.,4.8,56.,4.8,11.,4.8,9.,4.8
1979-07-17 18:13:11.880 ,2,0,0.,4.8,59.,4.8,13.,4.8,10.,4.8
1979-07-17 18:13:16.680 ,2,0,0.,4.8,56.,4.8,15.,4.8,6.,4.8
1979-07-17 18:13:21.480 ,2,0,0.,4.8,57.,4.8,9.,4.8,6.,4.8
1979-07-17 18:13:26.280 ,2,0,0.,4.8,78.,4.8,19.,4.8,7.,4.8
1979-07-17 18:13:31.080 ,2,0,1.,4.8,62.,4.8,13.,4.8,3.,4.8
1979-07-17 18:13:35.880 ,3,0,0.,4.8,58.,4.8,9.,4.8,11.,4.8
1979-07-17 18:13:40.680 ,3,0,0.,4.8,58.,4.8,15.,4.8,4.,4.8
1979-07-17 18:13:45.480 ,3,0,0.,4.8,34.,4.8,15.,4.8,3.,4.8
1979-07-17 18:13:50.280 ,3,0,0.,4.8,61.,4.8,12.,4.8,2.,4.8
1979-07-17 18:13:55.080 ,3,0,1.,4.8,54.,4.8,11.,4.8,6.,4.8
1979-07-17 18:13:59.880 ,3,0,0.,4.8,53.,4.8,18.,4.8,6.,4.8
1979-07-17 18:14:04.680 ,3,0,0.,4.8,57.,4.8,17.,4.8,4.,4.8
1979-07-17 18:14:09.480 ,3,0,0.,4.8,48.,4.8,9.,4.8,6.,4.8
1979-07-17 18:14:14.280 ,3,0,0.,4.8,50.,4.8,8.,4.8,7.,4.8
1979-07-17 18:14:19.080 ,3,0,0.,4.8,53.,4.8,17.,4.8,4.,4.8
1979-07-17 18:14:23.880 ,4,0,0.,4.8,58.,4.8,13.,4.8,7.,4.8
1979-07-17 18:14:28.680 ,4,0,0.,4.8,76.,4.8,12.,4.8,5.,4.8
1979-07-17 18:14:33.480 ,4,0,0.,4.8,53.,4.8,17.,4.8,4.,4.8
1979-07-17 18:14:38.280 ,4,0,0.,4.8,49.,4.8,6.,4.8,4.,4.8
1979-07-17 18:14:43.080 ,4,0,0.,4.8,41.,4.8,11.,4.8,2.,4.8
1979-07-17 18:14:47.880 ,4,0,0.,4.8,34.,4.8,8.,4.8,6.,4.8
1979-07-17 18:14:52.680 ,4,0,0.,4.8,58.,4.8,13.,4.8,6.,4.8
1979-07-17 18:14:57.480 ,4,0,0.,4.8,57.,4.8,14.,4.8,4.,4.8
1979-07-17 18:15:02.280 ,4,0,0.,4.8,52.,4.8,12.,4.8,4.,4.8
1979-07-17 18:15:07.080 ,4,0,0.,4.8,49.,4.8,15.,4.8,2.,4.8
1979-07-17 18:15:11.880 ,5,0,0.,4.8,52.,4.8,13.,4.8,7.,4.8
1979-07-17 18:15:16.680 ,5,0,0.,4.8,66.,4.8,11.,4.8,3.,4.8
1979-07-17 18:15:21.480 ,5,0,0.,4.8,33.,4.8,8.,4.8,5.,4.8
1979-07-17 18:15:26.280 ,5,0,0.,4.8,48.,4.8,9.,4.8,7.,4.8
1979-07-17 18:15:31.080 ,5,0,1.,4.8,60.,4.8,19.,4.8,1.,4.8
1979-07-17 18:15:35.880 ,5,0,0.,4.8,58.,4.8,16.,4.8,4.,4.8
1979-07-17 18:15:40.680 ,5,0,0.,4.8,51.,4.8,9.,4.8,5.,4.8
1979-07-17 18:15:45.480 ,5,0,0.,4.8,66.,4.8,16.,4.8,4.,4.8
1979-07-17 18:15:50.280 ,5,0,0.,4.8,52.,4.8,16.,4.8,5.,4.8
1979-07-17 18:15:55.080 ,5,0,0.,4.8,54.,4.8,4.,4.8,6.,4.8
1979-07-17 18:15:59.880 ,6,0,0.,4.8,42.,4.8,12.,4.8,4.,4.8
1979-07-17 18:16:04.680 ,6,0,1.,4.8,45.,4.8,12.,4.8,8.,4.8
1979-07-17 18:16:09.480 ,6,0,0.,4.8,45.,4.8,14.,4.8,4.,4.8
1979-07-17 18:16:14.280 ,6,0,1.,4.8,47.,4.8,14.,4.8,2.,4.8
1979-07-17 18:16:19.080 ,6,0,0.,4.8,37.,4.8,4.,4.8,8.,4.8
1979-07-17 18:16:23.880 ,6,0,0.,4.8,47.,4.8,13.,4.8,5.,4.8
1979-07-17 18:16:28.680 ,6,0,0.,4.8,39.,4.8,20.,4.8,7.,4.8
1979-07-17 18:16:33.480 ,6,0,0.,4.8,38.,4.8,9.,4.8,9.,4.8
1979-07-17 18:16:38.280 ,6,0,0.,4.8,59.,4.8,11.,4.8,3.,4.8
1979-07-17 18:16:43.080 ,6,0,0.,4.8,44.,4.8,6.,4.8,2.,4.8
1979-07-17 18:16:47.880 ,7,0,0.,4.8,45.,4.8,14.,4.8,3.,4.8
1979-07-17 18:16:52.680 ,7,0,1.,4.8,61.,4.8,8.,4.8,4.,4.8
1979-07-17 18:16:57.480 ,7,0,0.,4.8,1.,4.8,0.,4.8,0.,4.8
1979-07-17 18:17:02.280 ,7,0,0.,4.8,2.,4.8,0.,4.8,0.,4.8
1979-07-17 18:17:07.080 ,7,0,0.,4.8,2.,4.8,0.,4.8,0.,4.8
1979-07-17 18:17:11.880 ,7,0,0.,4.8,2.,4.8,0.,4.8,0.,4.8
1979-07-17 18:17:16.680 ,7,0,0.,4.8,1.,4.8,0.,4.8,1.,4.8
1979-07-17 18:17:21.480 ,7,0,0.,4.8,0.,4.8,0.,4.8,0.,4.8
1979-07-17 18:17:26.280 ,7,0,0.,4.8,0.,4.8,0.,4.8,0.,4.8
1979-07-17 18:17:31.080 ,7,0,0.,4.8,0.,4.8,0.,4.8,0.,4.8
1979-07-17 18:17:35.880 ,7,0,0.,4.8,1.,4.8,0.,4.8,0.,4.8
1979-07-17 18:17:40.680 ,7,0,0.,4.8,1.,4.8,0.,4.8,0.,4.8
1979-07-17 18:17:45.480 ,7,0,0.,4.8,0.,4.8,0.,4.8,0.,4.8
1979-07-17 18:17:50.280 ,7,0,0.,4.8,1.,4.8,1.,4.8,0.,4.8
1979-07-17 18:17:55.080 ,7,0,0.,4.8,0.,4.8,0.,4.8,0.,4.8
1979-07-17 18:17:59.880 ,7,0,0.,4.8,1.,4.8,0.,4.8,0.,4.8
1979-07-17 18:18:04.680 ,7,0,0.,4.8,0.,4.8,0.,4.8,0.,4.8
1979-07-17 18:18:09.480 ,7,0,0.,4.8,1.,4.8,0.,4.8,0.,4.8
1979-07-17 18:18:14.280 ,7,0,0.,4.8,1.,4.8,0.,4.8,0.,4.8
1979-07-17 18:18:19.080 ,7,0,0.,4.8,0.,4.8,0.,4.8,0.,4.8
1979-07-17 18:18:23.880 ,6,0,0.,4.8,1.,4.8,0.,4.8,0.,4.8
1979-07-17 18:18:28.680 ,6,0,0.,4.8,0.,4.8,0.,4.8,0.,4.8
1979-07-17 18:18:33.480 ,6,0,1.,4.8,51.,4.8,5.,4.8,3.,4.8
1979-07-17 18:18:38.280 ,6,0,0.,4.8,39.,4.8,10.,4.8,3.,4.8
1979-07-17 18:18:43.080 ,6,0,0.,4.8,50.,4.8,16.,4.8,6.,4.8
1979-07-17 18:18:47.880 ,6,0,0.,4.8,51.,4.8,7.,4.8,9.,4.8
1979-07-17 18:18:52.680 ,6,0,0.,4.8,56.,4.8,9.,4.8,7.,4.8
1979-07-17 18:18:57.480 ,6,0,0.,4.8,45.,4.8,5.,4.8,2.,4.8
1979-07-17 18:19:02.280 ,6,0,0.,4.8,52.,4.8,11.,4.8,2.,4.8
1979-07-17 18:19:07.080 ,6,0,0.,4.8,47.,4.8,15.,4.8,2.,4.8
1979-07-17 18:19:11.880 ,5,0,0.,4.8,56.,4.8,6.,4.8,1.,4.8
1979-07-17 18:19:16.680 ,5,0,0.,4.8,55.,4.8,10.,4.8,5.,4.8
1979-07-17 18:19:21.480 ,5,0,0.,4.8,51.,4.8,7.,4.8,6.,4.8
1979-07-17 18:19:26.280 ,5,0,0.,4.8,56.,4.8,14.,4.8,6.,4.8
1979-07-17 18:19:31.080 ,5,0,0.,4.8,49.,4.8,12.,4.8,5.,4.8
1979-07-17 18:19:35.880 ,5,0,0.,4.8,56.,4.8,7.,4.8,4.,4.8
1979-07-17 18:19:40.680 ,5,0,0.,4.8,57.,4.8,10.,4.8,6.,4.8
1979-07-17 18:19:45.480 ,5,0,0.,4.8,56.,4.8,6.,4.8,1.,4.8
1979-07-17 18:19:50.280 ,5,0,0.,4.8,48.,4.8,11.,4.8,9.,4.8
1979-07-17 18:19:55.080 ,5,0,0.,4.8,58.,4.8,7.,4.8,5.,4.8
1979-07-17 18:19:59.880 ,4,0,0.,4.8,40.,4.8,9.,4.8,3.,4.8
1979-07-17 18:20:04.680 ,4,0,0.,4.8,57.,4.8,14.,4.8,5.,4.8
1979-07-17 18:20:09.480 ,4,0,0.,4.8,54.,4.8,10.,4.8,4.,4.8
1979-07-17 18:20:14.280 ,4,0,0.,4.8,58.,4.8,7.,4.8,3.,4.8
1979-07-17 18:20:19.080 ,4,0,0.,4.8,61.,4.8,9.,4.8,4.,4.8
1979-07-17 18:20:23.880 ,4,0,0.,4.8,45.,4.8,10.,4.8,3.,4.8
1979-07-17 18:20:28.680 ,4,0,0.,4.8,46.,4.8,12.,4.8,3.,4.8
1979-07-17 18:20:33.480 ,4,0,0.,4.8,53.,4.8,6.,4.8,5.,4.8
1979-07-17 18:20:38.280 ,4,0,0.,4.8,43.,4.8,5.,4.8,4.,4.8
1979-07-17 18:20:43.080 ,4,0,0.,4.8,49.,4.8,7.,4.8,10.,4.8
1979-07-17 18:20:47.880 ,3,0,0.,4.8,44.,4.8,16.,4.8,5.,4.8
1979-07-17 18:20:52.680 ,3,0,0.,4.8,42.,4.8,10.,4.8,6.,4.8
1979-07-17 18:20:57.480 ,3,0,0.,4.8,44.,4.8,14.,4.8,7.,4.8
1979-07-17 18:21:02.280 ,3,0,0.,4.8,49.,4.8,19.,4.8,6.,4.8
1979-07-17 18:21:07.080 ,3,0,0.,4.8,44.,4.8,11.,4.8,3.,4.8
1979-07-17 18:21:11.880 ,3,0,0.,4.8,33.,4.8,8.,4.8,3.,4.8
1979-07-17 18:21:16.680 ,3,0,0.,4.8,38.,4.8,6.,4.8,6.,4.8
1979-07-17 18:21:21.480 ,3,0,0.,4.8,53.,4.8,7.,4.8,5.,4.8
1979-07-17 18:21:26.280 ,3,0,0.,4.8,59.,4.8,9.,4.8,5.,4.8
1979-07-17 18:21:31.080 ,3,0,0.,4.8,46.,4.8,12.,4.8,7.,4.8
1979-07-17 18:21:35.880 ,2,0,0.,4.8,55.,4.8,11.,4.8,0.,4.8
1979-07-17 18:21:40.680 ,2,0,0.,4.8,44.,4.8,14.,4.8,9.,4.8
1979-07-17 18:21:45.480 ,2,0,1.,4.8,43.,4.8,16.,4.8,10.,4.8
1979-07-17 18:21:50.280 ,2,0,0.,4.8,35.,4.8,14.,4.8,6.,4.8
1979-07-17 18:21:55.080 ,2,0,1.,4.8,37.,4.8,11.,4.8,9.,4.8
1979-07-17 18:21:59.880 ,2,0,1.,4.8,47.,4.8,18.,4.8,12.,4.8
1979-07-17 18:22:04.680 ,2,0,0.,4.8,32.,4.8,11.,4.8,5.,4.8
1979-07-17 18:22:09.480 ,2,0,1.,4.8,52.,4.8,12.,4.8,8.,4.8
1979-07-17 18:22:14.280 ,2,0,0.,4.8,44.,4.8,11.,4.8,10.,4.8
1979-07-17 18:22:19.080 ,2,0,1.,4.8,45.,4.8,13.,4.8,7.,4.8
1979-07-17 18:22:23.880 ,1,0,1.,4.8,39.,4.8,12.,4.8,0.,4.8
1979-07-17 18:22:28.680 ,1,0,2.,4.8,42.,4.8,22.,4.8,10.,4.8
1979-07-17 18:22:33.480 ,1,0,0.,4.8,39.,4.8,7.,4.8,4.,4.8
1979-07-17 18:22:38.280 ,1,0,0.,4.8,56.,4.8,13.,4.8,5.,4.8
1979-07-17 18:22:43.080 ,1,0,0.,4.8,36.,4.8,15.,4.8,4.,4.8
1979-07-17 18:22:47.880 ,1,0,0.,4.8,45.,4.8,14.,4.8,7.,4.8
1979-07-17 18:22:52.680 ,1,0,0.,4.8,35.,4.8,9.,4.8,6.,4.8
1979-07-17 18:22:57.480 ,1,0,0.,4.8,48.,4.8,16.,4.8,6.,4.8
1979-07-17 18:23:02.280 ,1,0,0.,4.8,35.,4.8,13.,4.8,6.,4.8
1979-07-17 18:23:07.080 ,1,0,0.,4.8,45.,4.8,9.,4.8,6.,4.8
1979-07-17 18:23:11.880 ,0,0,0.,4.8,51.,4.8,5.,4.8,5.,4.8
1979-07-17 18:23:16.680 ,0,0,0.,4.8,41.,4.8,10.,4.8,4.,4.8
1979-07-17 18:23:21.480 ,0,0,0.,4.8,48.,4.8,12.,4.8,3.,4.8
1979-07-17 18:23:26.280 ,0,0,1.,4.8,37.,4.8,11.,4.8,8.,4.8
1979-07-17 18:23:31.080 ,0,0,0.,4.8,43.,4.8,7.,4.8,6.,4.8
1979-07-17 18:23:35.880 ,0,0,0.,4.8,40.,4.8,14.,4.8,1.,4.8
1979-07-17 18:23:40.680 ,0,0,0.,4.8,38.,4.8,9.,4.8,4.,4.8
1979-07-17 18:23:45.480 ,0,0,0.,4.8,45.,4.8,8.,4.8,3.,4.8
1979-07-17 18:23:50.280 ,0,0,0.,4.8,37.,4.8,8.,4.8,3.,4.8
1979-07-17 18:23:55.080 ,0,0,0.,4.8,39.,4.8,3.,4.8,3.,4.8
1979-07-17 18:23:59.880 ,0,0,0.,4.8,41.,4.8,8.,4.8,4.,4.8
1979-07-17 18:24:04.680 ,0,0,0.,4.8,42.,4.8,1.,4.8,2.,4.8
1979-07-17 18:24:09.480 ,0,0,0.,4.8,47.,4.8,10.,4.8,1.,4.8
1979-07-17 18:24:14.280 ,0,0,0.,4.8,35.,4.8,11.,4.8,4.,4.8
1979-07-17 18:24:19.080 ,0,0,0.,4.8,47.,4.8,12.,4.8,2.,4.8
1979-07-17 18:24:23.880 ,0,0,0.,4.8,31.,4.8,13.,4.8,5.,4.8
1979-07-17 18:24:28.680 ,0,0,0.,4.8,40.,4.8,8.,4.8,2.,4.8
1979-07-17 18:24:33.480 ,0,0,0.,4.8,40.,4.8,7.,4.8,5.,4.8
1979-07-17 18:24:38.280 ,0,0,0.,4.8,34.,4.8,8.,4.8,3.,4.8
1979-07-17 18:24:43.080 ,0,0,0.,4.8,36.,4.8,8.,4.8,5.,4.8
1979-07-17 18:24:47.880 ,1,0,0.,4.8,39.,4.8,9.,4.8,3.,4.8
1979-07-17 18:24:52.680 ,1,0,0.,4.8,38.,4.8,6.,4.8,6.,4.8
1979-07-17 18:24:57.480 ,1,0,0.,4.8,34.,4.8,8.,4.8,5.,4.8
1979-07-17 18:25:02.280 ,1,0,0.,4.8,43.,4.8,13.,4.8,4.,4.8
1979-07-17 18:25:07.080 ,1,0,0.,4.8,42.,4.8,8.,4.8,3.,4.8
1979-07-17 18:25:11.880 ,1,0,0.,4.8,35.,4.8,10.,4.8,5.,4.8
1979-07-17 18:25:16.680 ,1,0,0.,4.8,40.,4.8,11.,4.8,4.,4.8
1979-07-17 18:25:21.480 ,1,0,0.,4.8,36.,4.8,9.,4.8,1.,4.8
1979-07-17 18:25:26.280 ,1,0,0.,4.8,46.,4.8,9.,4.8,3.,4.8
1979-07-17 18:25:31.080 ,1,0,0.,4.8,44.,4.8,11.,4.8,5.,4.8
1979-07-17 18:25:35.880 ,2,0,0.,4.8,55.,4.8,10.,4.8,4.,4.8
1979-07-17 18:25:40.680 ,2,0,0.,4.8,37.,4.8,7.,4.8,5.,4.8
1979-07-17 18:25:45.480 ,2,0,0.,4.8,60.,4.8,20.,4.8,12.,4.8
1979-07-17 18:25:50.280 ,2,0,0.,4.8,64.,4.8,15.,4.8,14.,4.8
1979-07-17 18:25:55.080 ,2,0,0.,4.8,49.,4.8,18.,4.8,9.,4.8
1979-07-17 18:25:59.880 ,2,0,0.,4.8,55.,4.8,21.,4.8,12.,4.8
1979-07-17 18:26:04.680 ,2,0,0.,4.8,50.,4.8,28.,4.8,7.,4.8
1979-07-17 18:26:09.480 ,2,0,0.,4.8,45.,4.8,26.,4.8,3.,4.8
1979-07-17 18:26:14.280 ,2,0,1.,4.8,44.,4.8,18.,4.8,8.,4.8
1979-07-17 18:26:19.080 ,2,0,1.,4.8,60.,4.8,25.,4.8,3.,4.8
1979-07-17 18:26:23.880 ,3,0,1.,4.8,57.,4.8,32.,4.8,13.,4.8
1979-07-17 18:26:28.680 ,3,0,0.,4.8,41.,4.8,15.,4.8,10.,4.8
1979-07-17 18:26:33.480 ,3,0,0.,4.8,37.,4.8,8.,4.8,8.,4.8
1979-07-17 18:26:38.280 ,3,0,0.,4.8,44.,4.8,10.,4.8,4.,4.8
1979-07-17 18:26:43.080 ,3,0,0.,4.8,43.,4.8,12.,4.8,5.,4.8
1979-07-17 18:26:47.880 ,3,0,0.,4.8,38.,4.8,10.,4.8,6.,4.8
1979-07-17 18:26:52.680 ,3,0,0.,4.8,35.,4.8,11.,4.8,2.,4.8
1979-07-17 18:26:57.480 ,3,0,0.,4.8,35.,4.8,8.,4.8,4.,4.8
1979-07-17 18:27:02.280 ,3,0,0.,4.8,47.,4.8,9.,4.8,3.,4.8
1979-07-17 18:27:07.080 ,3,0,1.,4.8,27.,4.8,11.,4.8,1.,4.8
1979-07-17 18:27:11.880 ,4,0,1.,4.8,36.,4.8,6.,4.8,0.,4.8
1979-07-17 18:27:16.680 ,4,0,0.,4.8,31.,4.8,10.,4.8,6.,4.8
1979-07-17 18:27:21.480 ,4,0,0.,4.8,45.,4.8,11.,4.8,4.,4.8
1979-07-17 18:27:26.280 ,4,0,0.,4.8,51.,4.8,10.,4.8,2.,4.8
1979-07-17 18:27:31.080 ,4,0,0.,4.8,37.,4.8,7.,4.8,3.,4.8
1979-07-17 18:27:35.880 ,4,0,0.,4.8,45.,4.8,11.,4.8,3.,4.8
1979-07-17 18:27:40.680 ,4,0,0.,4.8,46.,4.8,7.,4.8,1.,4.8
1979-07-17 18:27:45.480 ,4,0,0.,4.8,45.,4.8,10.,4.8,4.,4.8
1979-07-17 18:27:50.280 ,4,0,0.,4.8,52.,4.8,5.,4.8,2.,4.8
1979-07-17 18:27:55.080 ,4,0,0.,4.8,48.,4.8,3.,4.8,5.,4.8
1979-07-17 18:27:59.880 ,5,0,0.,4.8,47.,4.8,13.,4.8,6.,4.8
1979-07-17 18:28:04.680 ,5,0,0.,4.8,46.,4.8,8.,4.8,1.,4.8
1979-07-17 18:28:09.480 ,5,0,0.,4.8,56.,4.8,12.,4.8,6.,4.8
1979-07-17 18:28:14.280 ,5,0,0.,4.8,59.,4.8,10.,4.8,4.,4.8
1979-07-17 18:28:19.080 ,5,0,0.,4.8,46.,4.8,18.,4.8,3.,4.8
1979-07-17 18:28:23.880 ,5,0,0.,4.8,47.,4.8,6.,4.8,2.,4.8
1979-07-17 18:28:28.680 ,5,0,0.,4.8,48.,4.8,7.,4.8,3.,4.8
1979-07-17 18:28:33.480 ,5,0,0.,4.8,53.,4.8,14.,4.8,4.,4.8
1979-07-17 18:28:38.280 ,5,0,0.,4.8,53.,4.8,13.,4.8,5.,4.8
1979-07-17 18:28:43.080 ,5,0,0.,4.8,42.,4.8,9.,4.8,2.,4.8
1979-07-17 18:28:47.880 ,6,0,1.,4.8,50.,4.8,12.,4.8,11.,4.8
1979-07-17 18:28:52.680 ,6,0,1.,4.8,61.,4.8,9.,4.8,3.,4.8
1979-07-17 18:28:57.480 ,6,0,0.,4.8,40.,4.8,5.,4.8,2.,4.8
1979-07-17 18:29:02.280 ,6,0,0.,4.8,50.,4.8,13.,4.8,5.,4.8
1979-07-17 18:29:07.080 ,6,0,0.,4.8,60.,4.8,6.,4.8,2.,4.8
1979-07-17 18:29:11.880 ,6,0,0.,4.8,42.,4.8,7.,4.8,4.,4.8
1979-07-17 18:29:16.680 ,6,0,0.,4.8,43.,4.8,7.,4.8,2.,4.8
1979-07-17 18:29:21.480 ,6,0,0.,4.8,63.,4.8,11.,4.8,6.,4.8
1979-07-17 18:29:26.280 ,6,0,0.,4.8,60.,4.8,9.,4.8,4.,4.8
1979-07-17 18:29:31.080 ,6,0,0.,4.8,44.,4.8,9.,4.8,5.,4.8
1979-07-17 18:29:35.880 ,7,0,0.,4.8,46.,4.8,7.,4.8,2.,4.8
1979-07-17 18:29:40.680 ,7,0,0.,4.8,63.,4.8,10.,4.8,6.,4.8
1979-07-17 18:29:45.480 ,7,0,0.,4.8,1.,4.8,0.,4.8,0.,4.8
1979-07-17 18:29:50.280 ,7,0,0.,4.8,0.,4.8,1.,4.8,0.,4.8
1979-07-17 18:29:55.080 ,7,0,0.,4.8,3.,4.8,0.,4.8,0.,4.8
1979-07-17 18:29:59.880 ,7,0,0.,4.8,0.,4.8,0.,4.8,0.,4.8
1979-07-17 18:30:04.680 ,7,0,0.,4.8,0.,4.8,0.,4.8,0.,4.8
1979-07-17 18:30:09.480 ,7,0,0.,4.8,2.,4.8,0.,4.8,0.,4.8
1979-07-17 18:30:14.280 ,7,0,0.,4.8,1.,4.8,0.,4.8,0.,4.8
1979-07-17 18:30:19.080 ,7,0,0.,4.8,5.,4.8,1.,4.8,0.,4.8
1979-07-17 18:30:23.880 ,7,0,0.,4.8,1.,4.8,0.,4.8,0.,4.8
1979-07-17 18:30:28.680 ,7,0,0.,4.8,0.,4.8,0.,4.8,0.,4.8
1979-07-17 18:30:33.480 ,7,0,0.,4.8,2.,4.8,0.,4.8,0.,4.8
1979-07-17 18:30:38.280 ,7,0,0.,4.8,1.,4.8,0.,4.8,0.,4.8
1979-07-17 18:30:43.080 ,7,0,0.,4.8,0.,4.8,0.,4.8,1.,4.8
1979-07-17 18:30:47.880 ,7,0,0.,4.8,0.,4.8,0.,4.8,0.,4.8
1979-07-17 18:30:52.680 ,7,0,0.,4.8,1.,4.8,0.,4.8,0.,4.8
1979-07-17 18:30:57.480 ,7,0,0.,4.8,2.,4.8,0.,4.8,0.,4.8
1979-07-17 18:31:02.280 ,7,0,0.,4.8,1.,4.8,0.,4.8,0.,4.8
1979-07-17 18:31:07.080 ,7,0,0.,4.8,0.,4.8,0.,4.8,0.,4.8
1979-07-17 18:31:11.880 ,6,0,0.,4.8,3.,4.8,1.,4.8,0.,4.8
1979-07-17 18:31:16.680 ,6,0,0.,4.8,3.,4.8,0.,4.8,1.,4.8
1979-07-17 18:31:21.480 ,6,0,0.,4.8,51.,4.8,14.,4.8,3.,4.8
1979-07-17 18:31:26.280 ,6,0,0.,4.8,60.,4.8,11.,4.8,4.,4.8
1979-07-17 18:31:31.080 ,6,0,0.,4.8,56.,4.8,8.,4.8,8.,4.8
1979-07-17 18:31:35.880 ,6,0,1.,4.8,45.,4.8,12.,4.8,4.,4.8
1979-07-17 18:31:40.680 ,6,0,0.,4.8,51.,4.8,10.,4.8,2.,4.8
1979-07-17 18:31:45.480 ,6,0,0.,4.8,63.,4.8,10.,4.8,3.,4.8
1979-07-17 18:31:50.280 ,6,0,0.,4.8,66.,4.8,9.,4.8,3.,4.8
1979-07-17 18:31:55.080 ,6,0,0.,4.8,55.,4.8,7.,4.8,4.,4.8
1979-07-17 18:31:59.880 ,5,0,0.,4.8,53.,4.8,12.,4.8,3.,4.8
1979-07-17 18:32:04.680 ,5,0,0.,4.8,51.,4.8,8.,4.8,0.,4.8
1979-07-17 18:32:09.480 ,5,0,0.,4.8,50.,4.8,10.,4.8,2.,4.8
1979-07-17 18:32:14.280 ,5,0,0.,4.8,38.,4.8,8.,4.8,3.,4.8
1979-07-17 18:32:19.080 ,5,0,0.,4.8,54.,4.8,10.,4.8,8.,4.8
1979-07-17 18:32:23.880 ,5,0,0.,4.8,49.,4.8,11.,4.8,4.,4.8
1979-07-17 18:32:28.680 ,5,0,0.,4.8,33.,4.8,9.,4.8,4.,4.8